Piloten Info

Wichtige Hinweise:

  • Tower Frequenz 122,330 kHz - keine Landung ohne Funkkontakt
  • PPR Betrieb
  • Temporäre Hindernisse (Baukräne) nahe dem Flugplatz durch Bauarbeiten entlang der Nürnberger Straße (Östliche Seite).
  • Starts auf RWY 09 sind nicht gestattet. Start generell auf RWY 27. Bei Planung Rückenwinde berücksichtigen!
  • Bei Anflügen auf RWY 27 sind Hindernisse vorhanden, aus diesem Grund die versetzte Schwelle27!
  • Der Flugverein Neumarkt führt seine Starts generell auf RWY 27 und Landungen auf RWY09 durch.
  • Es besteht keine Tankmöglichkeit.

Diese Hinweis sind als Ergänzung / Hilfe zur regulären Flugplanung gedacht.

Auszüge aus AIP VFR ohne Gewähr - es gelten die offiziellen Veröffentlichungen.




Wind Infos (info ohne Gewähr - nicht geeicht)

Wind Speed
Wind Direction


METAR Informationen der nächstgelegenen Flughäfen


EDDN / Flughafen Nürnberg „Albrecht Dürer“

EDDN 270920Z 17007KT 140V200 9999 SCT018 03/01 Q0991 NOSIG

ETIC / Fliegerhorst Grafenwöhr AAF

ETIC 270856Z AUTO 18006KT 9999 BKN014 OVC026 02/M01 A2924 RMK AO2 FZRAE0756RAB0756E15RAB15E15 SLP921 P0000 60000 T00151007 52010 $

ETIH / Fliegerhorst Hohenfels AAF

ETIH 270917Z AUTO 17003KT 9999 SCT011 BKN034 OVC042 01/M01 A2928 RMK AO2 UPB0856E12UPB12E12 SLP936 $